Location: Butler
(32.5575°N, 84.2380°W)
Time: 09:03:22
(UTC+00:00)

Hubble Space Telescope - Visible Passes

Search period start: 04 December 2021 00:00
Search period end: 14 December 2021 00:00
Orbit: 534 x 538 km, 28.5° (Epoch: 03 December)

Date Brightness Start Highest point End Pass type
(mag) Time Alt. Az. Time Alt. Az. Time Alt. Az.
04 Dec 3.2 09:54:00 18° SE 09:54:00 18° SE 09:55:18 10° SE visible
04 Dec 3.1 11:30:22 10° SW 11:32:15 13° SSW 11:34:07 10° S visible
05 Dec 3.7 09:43:34 12° SE 09:43:34 12° SE 09:43:57 10° SE visible
13 Dec 3.2 23:34:02 10° S 23:35:31 12° SSE 23:36:59 10° SE visible
